User: anonymous   Login
Location: Nebraska Star Party
(42.6000°N, 100.8833°W)
Time: 04:51:06
(UTC-06:00)
Language:

Iridium 37 - Orbit

View from above orbital plane
View from above orbital plane
View from above satellite
View from above satellite

Ground track
Ground track

The orbit data is extracted from the following two-line orbital elements,

1 24968U 97056D   14326.49069830  .00000011  00000-0 -33094-5 0   506
2 24968 086.3957 350.8184 0002129 108.1076 252.0352 14.34213650898132
Epoch (UTC): 22 November 2014 11:46:36
Eccentricity: 0.0002129
inclination: 86.3957°
perigee height: 776 km
apogee height: 779 km
right ascension of ascending node: 350.8184°
argument of perigee: 108.1076°
revolutions per day: 14.34213650
mean anomaly at epoch: 252.0352°
orbit number at epoch: 89813

The dashed part of the orbit path shows where the satellite is in the earth's shadow,  

DLR